When you browse on this site, cookies collect data to enhance your experience and personalize the content and advertising you see.
Visit our Privacy Policy to learn more. By continuing to use the site, you agree to this use of cookies and data.
  • In United Kingdom
  • List of Countries
  • For 7 days
  • Water Temperature
  • Weather Map
  • Weather Widgets
  • user-avatar
    Login

    Hourly Weather Natitingou

    Today, 21 February, Friday

    Time Temperature Precipitation Wind Pressure Humidity
    00:00 +27°C° 0 mm 3 mps 716 mmHg 16%
    01:00 +26°C° 0 mm 3 mps 716 mmHg 16%
    02:00 +26°C° 0 mm 3 mps 715 mmHg 17%
    03:00 +25°C° 0 mm 3 mps 715 mmHg 17%
    04:00 +25°C° 0 mm 3 mps 715 mmHg 17%
    05:00 +25°C° 0 mm 3 mps 716 mmHg 18%
    06:00 +24°C° 0 mm 3 mps 716 mmHg 18%
    13:00 +41°C° 0 mm 2 mps 716 mmHg 8%
    14:00 +41°C° 0 mm 2 mps 715 mmHg 8%
    15:00 +42°C° 0 mm 2 mps 715 mmHg 8%
    16:00 +40°C° 0 mm 2 mps 715 mmHg 9%
    17:00 +36°C° 0 mm 1 mps 714 mmHg 11%
    18:00 +34°C° 0 mm 1 mps 714 mmHg 12%
    19:00 +32°C° 0 mm 2 mps 715 mmHg 12%
    20:00 +31°C° 0 mm 2 mps 715 mmHg 13%
    21:00 +29°C° 0 mm 2 mps 716 mmHg 13%
    22:00 +29°C° 0 mm 2 mps 716 mmHg 13%
    23:00 +28°C° 0 mm 2 mps 716 mmHg 12%

    Tomorrow, 22 February, Saturday

    Time Temperature Precipitation Wind Pressure Humidity
    00:00 +28°C° 0 mm 3 mps 716 mmHg 12%
    01:00 +28°C° 0 mm 3 mps 716 mmHg 12%
    02:00 +27°C° 0 mm 3 mps 716 mmHg 13%
    03:00 +27°C° 0 mm 3 mps 716 mmHg 13%
    04:00 +26°C° 0 mm 3 mps 716 mmHg 14%
    05:00 +26°C° 0 mm 3 mps 716 mmHg 14%
    06:00 +25°C° 0 mm 3 mps 716 mmHg 15%
    07:00 +28°C° 0 mm 3 mps 717 mmHg 14%
    08:00 +32°C° 0 mm 4 mps 717 mmHg 13%
    09:00 +34°C° 0 mm 4 mps 718 mmHg 12%
    10:00 +36°C° 0 mm 4 mps 718 mmHg 11%
    11:00 +40°C° 0 mm 4 mps 717 mmHg 10%
    12:00 +42°C° 0 mm 3 mps 717 mmHg 9%
    13:00 +43°C° 0 mm 3 mps 716 mmHg 9%
    14:00 +43°C° 0 mm 3 mps 716 mmHg 9%
    15:00 +44°C° 0 mm 3 mps 715 mmHg 9%
    16:00 +41°C° 0 mm 2 mps 715 mmHg 10%
    17:00 +39°C° 0 mm 2 mps 715 mmHg 12%
    18:00 +36°C° 0 mm 2 mps 715 mmHg 14%
    19:00 +35°C° 0 mm 2 mps 715 mmHg 14%
    20:00 +34°C° 0 mm 2 mps 716 mmHg 15%
    21:00 +31°C° 0 mm 3 mps 716 mmHg 16%
    22:00 +31°C° 0 mm 3 mps 716 mmHg 16%
    23:00 +32°C° 0 mm 4 mps 716 mmHg 15%

    Day after tomorrow, 23 February, Sunday

    Time Temperature Precipitation Wind Pressure Humidity
    00:00 +32°C° 0 mm 4 mps 716 mmHg 15%
    01:00 +30°C° 0 mm 4 mps 716 mmHg 15%
    02:00 +29°C° 0 mm 4 mps 716 mmHg 15%
    03:00 +29°C° 0 mm 5 mps 716 mmHg 15%
    04:00 +28°C° 0 mm 4 mps 716 mmHg 16%
    05:00 +26°C° 0 mm 3 mps 717 mmHg 17%
    06:00 +25°C° 0 mm 3 mps 717 mmHg 18%
    07:00 +27°C° 0 mm 3 mps 718 mmHg 17%
    08:00 +30°C° 0 mm 4 mps 719 mmHg 15%
    09:00 +33°C° 0 mm 4 mps 720 mmHg 13%
    10:00 +35°C° 0 mm 4 mps 719 mmHg 12%
    11:00 +38°C° 0 mm 4 mps 719 mmHg 11%
    12:00 +40°C° 0 mm 3 mps 718 mmHg 10%
    13:00 +40°C° 0 mm 3 mps 718 mmHg 10%
    14:00 +42°C° 0 mm 4 mps 717 mmHg 9%
    15:00 +43°C° 0 mm 4 mps 716 mmHg 8%
    16:00 +40°C° 0 mm 3 mps 716 mmHg 10%
    17:00 +38°C° 0 mm 2 mps 716 mmHg 11%
    18:00 +35°C° 0 mm 2 mps 716 mmHg 13%
    19:00 +34°C° 0 mm 2 mps 716 mmHg 13%
    20:00 +33°C° 0 mm 3 mps 717 mmHg 14%
    21:00 +30°C° 0 mm 3 mps 717 mmHg 15%
    22:00 +30°C° 0 mm 3 mps 717 mmHg 15%
    23:00 +30°C° 0 mm 3 mps 717 mmHg 15%

    24 February, Monday

    Time Temperature Precipitation Wind Pressure Humidity
    00:00 +29°C° 0 mm 4 mps 717 mmHg 15%
    01:00 +29°C° 0 mm 4 mps 717 mmHg 14%
    02:00 +28°C° 0 mm 5 mps 717 mmHg 13%
    03:00 +28°C° 0 mm 5 mps 717 mmHg 13%
    04:00 +27°C° 0 mm 5 mps 717 mmHg 13%
    05:00 +27°C° 0 mm 5 mps 718 mmHg 13%
    06:00 +26°C° 0 mm 6 mps 718 mmHg 13%
    07:00 +28°C° 0 mm 6 mps 718 mmHg 12%
    08:00 +29°C° 0 mm 6 mps 719 mmHg 11%
    09:00 +32°C° 0 mm 7 mps 720 mmHg 10%
    10:00 +34°C° 0 mm 6 mps 719 mmHg 9%
    11:00 +36°C° 0 mm 5 mps 719 mmHg 8%
    12:00 +39°C° 0 mm 5 mps 718 mmHg 7%
    13:00 +38°C° 0 mm 4 mps 717 mmHg 7%
    14:00 +40°C° 0 mm 4 mps 717 mmHg 7%
    15:00 +40°C° 0 mm 4 mps 716 mmHg 7%
    16:00 +37°C° 0 mm 3 mps 716 mmHg 8%
    17:00 +35°C° 0 mm 3 mps 716 mmHg 8%
    18:00 +32°C° 0 mm 2 mps 716 mmHg 9%
    19:00 +31°C° 0 mm 3 mps 716 mmHg 10%
    20:00 +29°C° 0 mm 3 mps 717 mmHg 10%
    21:00 +28°C° 0 mm 3 mps 717 mmHg 10%
    22:00 +28°C° 0 mm 4 mps 717 mmHg 11%
    23:00 +27°C° 0 mm 4 mps 717 mmHg 11%

    25 February, Tuesday

    Time Temperature Precipitation Wind Pressure Humidity
    00:00 +27°C° 0 mm 4 mps 717 mmHg 11%
    01:00 +26°C° 0 mm 4 mps 717 mmHg 12%
    02:00 +26°C° 0 mm 4 mps 717 mmHg 12%
    03:00 +25°C° 0 mm 4 mps 717 mmHg 12%
    04:00 +23°C° 0 mm 4 mps 717 mmHg 13%
    05:00 +22°C° 0 mm 4 mps 717 mmHg 15%
    06:00 +21°C° 0 mm 3 mps 717 mmHg 16%
    07:00 +23°C° 0 mm 4 mps 718 mmHg 14%
    08:00 +26°C° 0 mm 4 mps 719 mmHg 13%
    09:00 +28°C° 0 mm 5 mps 719 mmHg 12%
    10:00 +30°C° 0 mm 5 mps 719 mmHg 10%
    11:00 +34°C° 0 mm 4 mps 718 mmHg 9%
    12:00 +36°C° 0 mm 4 mps 718 mmHg 8%
    13:00 +37°C° 0 mm 3 mps 717 mmHg 8%
    14:00 +37°C° 0 mm 3 mps 716 mmHg 7%
    15:00 +38°C° 0 mm 2 mps 716 mmHg 7%
    16:00 +36°C° 0 mm 2 mps 716 mmHg 8%
    17:00 +34°C° 0 mm 2 mps 716 mmHg 10%
    18:00 +31°C° 0 mm 2 mps 715 mmHg 11%
    19:00 +29°C° 0 mm 2 mps 716 mmHg 12%
    20:00 +27°C° 0 mm 2 mps 716 mmHg 12%
    21:00 +26°C° 0 mm 2 mps 716 mmHg 13%
    22:00 +25°C° 0 mm 2 mps 716 mmHg 13%
    23:00 +25°C° 0 mm 2 mps 716 mmHg 14%

    26 February, Wednesday

    Time Temperature Precipitation Wind Pressure Humidity
    00:00 +24°C° 0 mm 2 mps 716 mmHg 14%
    01:00 +24°C° 0 mm 2 mps 716 mmHg 15%
    02:00 +22°C° 0 mm 3 mps 716 mmHg 15%
    03:00 +22°C° 0 mm 3 mps 715 mmHg 16%
    04:00 +21°C° 0 mm 3 mps 715 mmHg 16%
    05:00 +21°C° 0 mm 3 mps 716 mmHg 17%
    06:00 +20°C° 0 mm 2 mps 716 mmHg 18%
    07:00 +24°C° 0 mm 3 mps 716 mmHg 16%
    08:00 +26°C° 0 mm 3 mps 717 mmHg 15%
    09:00 +29°C° 0 mm 4 mps 718 mmHg 13%
    10:00 +33°C° 0 mm 3 mps 718 mmHg 12%
    11:00 +35°C° 0 mm 3 mps 717 mmHg 10%
    12:00 +38°C° 0 mm 2 mps 717 mmHg 9%
    13:00 +39°C° 0 mm 2 mps 716 mmHg 8%
    14:00 +41°C° 0 mm 1 mps 716 mmHg 7%
    15:00 +39°C° 0 mm 0 mps 715 mmHg 7%
    16:00 +36°C° 0 mm 0 mps 715 mmHg 8%
    17:00 +32°C° 0 mm 0 mps 715 mmHg 10%
    18:00 +29°C° 0 mm 0 mps 714 mmHg 12%
    19:00 +30°C° 0 mm 1 mps 715 mmHg 12%
    20:00 +29°C° 0 mm 1 mps 715 mmHg 13%
    21:00 +27°C° 0 mm 1 mps 715 mmHg 14%
    22:00 +27°C° 0 mm 1 mps 716 mmHg 14%
    23:00 +26°C° 0 mm 1 mps 716 mmHg 14%
    Show more